[[{"header":{"parameterUnit":"m.s-1","parameterCategory":1,"la1":30.2991,"la2":30.254,"lo1":-89.0895,"lo2":-89.0444,"dy":0.0017,"dx":0.0017,"nx":28,"ny":28,"refTime":"2023-11-17T09:00:00:Z","depth":0,"parameterNumber":2,"parameterNumberName":"U-component_of_WINDS"},"data":[0,0,0,0,0,0,0,0,0,0,0,0,0,0,0,0,0,0,0,0,0,0,0,0,0,0,0,0,0,0,0,0,0,0,0,0,0,0,0,0,0,0,0,0,0,0,0,0,0,0,0,0,0,0,0,0,0,0,-1.0491,-1.0491,0,-1.0561,-1.0562,-1.0563,-1.0556,-1.0555,-1.0554,-1.0553,-1.0629,-1.0632,-1.0635,0,0,0,0,0,0,0,0,0,0,0,0,0,-1.0352,-1.0355,-1.0491,-1.0491,-1.0492,-1.0561,-1.0562,-1.0563,-1.0556,-1.0555,-1.0554,-1.0552,-1.0628,-1.0631,-1.0635,0,0,0,0,0,0,0,0,0,0,0,0,0,-1.0417,-1.0356,-1.049,-1.0497,-1.0498,-1.0561,-1.0562,-1.0564,-1.0557,-1.0555,-1.0553,-1.0552,-1.0627,-1.0631,-1.0636,-1.0698,0,0,-1.065,-1.0652,0,0,0,0,0,0,0,0,-1.0413,-1.0422,-1.0495,-1.0497,-1.0498,-1.0548,-1.0541,-1.0609,-1.0557,-1.0535,-1.0553,-1.0551,-1.0604,-1.061,-1.0627,-1.0701,-1.0704,-1.065,-1.0653,-1.0655,-1.0656,0,0,0,0,0,0,0,-1.0409,-1.0419,-1.0519,-1.0496,-1.0498,-1.0497,-1.0505,-1.0554,-1.0578,-1.0536,-1.0536,-1.0544,-1.0604,-1.0623,-1.0629,-1.0705,-1.065,-1.0654,-1.0657,-1.0659,-1.0834,-1.0836,0,0,0,0,0,0,-1.0402,-1.0415,-1.0516,-1.0521,-1.0451,-1.0501,-1.0509,-1.0534,-1.0577,-1.0582,-1.0546,-1.0544,-1.0616,-1.0623,-1.0631,-1.0707,-1.0655,-1.0659,-1.0662,-1.0833,-1.0835,-1.0837,0,0,0,0,0,0,-1.0399,-1.0411,-1.0514,-1.0468,-1.0481,-1.0505,-1.0533,-1.0536,-1.0555,-1.0584,-1.0589,-1.056,-1.0615,-1.0625,-1.0681,-1.071,-1.0661,-1.0665,-1.083,-1.0833,-1.0836,-1.0859,0,0,0,0,0,0,-1.0395,-1.041,-1.0433,-1.0468,-1.0483,-1.0561,-1.0535,-1.0539,-1.0562,-1.056,-1.0599,-1.0604,-1.0614,-1.0674,-1.0686,-1.0715,-1.0669,-1.0828,-1.0832,-1.0835,-1.0856,-1.0863,-1.0868,0,0,0,0,0,-1.039,-1.0438,-1.0434,-1.0447,-1.0512,-1.0563,-1.0571,-1.0581,-1.0564,-1.0588,-1.0607,-1.0602,-1.0704,-1.068,-1.0693,-1.0724,-1.0826,-1.0831,-1.0835,-1.0853,-1.0861,-1.0868,0,0,0,0,0,0,-1.0406,-1.0442,-1.0439,-1.0499,-1.0528,-1.0561,-1.0592,-1.0589,-1.0625,-1.0622,-1.0634,-1.0642,-1.0699,-1.0717,-1.0689,-1.0787,-1.0763,-1.077,-1.0773,-1.0781,-1.0787,-1.0782,-1.0673,0,0,0,0,0,-1.0417,-1.0453,-1.0483,-1.0533,-1.0548,-1.0567,-1.059,-1.0595,-1.0625,-1.0638,-1.0661,-1.0692,-1.0731,-1.0757,-1.0794,-1.0858,-1.0867,-1.0886,-1.0892,-1.0897,-1.0903,-1.0939,-1.0949,-1.0851,-1.0851,-1.0851,0,0,-1.0439,-1.0463,-1.0486,-1.0537,-1.056,-1.0599,-1.0578,-1.062,-1.0649,-1.0645,-1.0699,-1.0717,-1.0752,-1.0813,-1.084,-1.083,-1.0932,-1.0902,-1.0906,-1.091,-1.0945,-1.0954,-1.0962,-1.0854,-1.0853,-1.0853,0,0,-1.0499,-1.0521,-1.0565,-1.0588,-1.0622,-1.0635,-1.0646,-1.068,-1.0691,-1.0745,-1.0743,-1.0779,-1.0845,-1.0871,-1.0893,-1.0962,-1.096,-1.0974,-1.1006,-1.1041,-1.1049,-1.1056,-1.1082,-1.1091,-1.098,-1.098,-1.098,0,-1.0523,-1.058,-1.0588,-1.0631,-1.0654,-1.065,-1.0696,-1.0718,-1.0764,-1.078,-1.0767,-1.0851,-1.0874,-1.0941,-1.0958,-1.0975,-1.0989,-1.0971,-1.1047,-1.1054,-1.1061,-1.1085,-1.1095,-1.0982,-1.0982,-1.0982,-1.0981,0,-1.0608,-1.0648,-1.068,-1.0723,-1.0749,-1.0793,-1.0809,-1.0835,-1.0838,-1.0852,-1.0908,-1.0936,-1.0979,-1.0995,-1.0998,-1.1062,-1.1055,-1.1044,-1.1021,-1.1071,-1.1095,-1.1104,-1.0984,-1.0984,-1.0983,-1.0983,0,0,-1.0682,-1.0728,-1.074,-1.0759,-1.0797,-1.0828,-1.0872,-1.0913,-1.0936,-1.0967,-1.1005,-1.1062,-1.1052,-1.1077,-1.1083,-1.1113,-1.1168,-1.1099,-1.11,-1.1112,-1.1241,-1.125,-1.1261,-1.1166,-1.1167,-1.1169,-1.1239,0,-1.0747,-1.0824,-1.0832,-1.0901,-1.0939,-1.0935,-1.0974,-1.1001,-1.1016,-1.1051,-1.1067,-1.1107,-1.1091,-1.1106,-1.1136,-1.1155,-1.1194,-1.115,-1.1203,-1.1204,-1.1195,-1.1273,-1.1282,-1.1347,-1.1248,-1.125,-1.1251,0,-1.0833,-1.0866,-1.0938,-1.0971,-1.0987,-1.1021,-1.106,-1.1093,-1.1124,-1.1133,-1.116,-1.1162,-1.1209,-1.1182,-1.1247,-1.1217,-1.1239,-1.1252,-1.1254,-1.1261,-1.1232,-1.1283,-1.1368,-1.1378,-1.1265,-1.1264,-1.1263,0,-1.0881,-1.0943,-1.0995,-1.1011,-1.105,-1.1075,-1.1092,-1.1122,-1.1146,-1.118,-1.1196,-1.1236,-1.1258,-1.1289,-1.1302,-1.1281,-1.1366,-1.1341,-1.1376,-1.1376,-1.1395,-1.1394,-1.1486,-1.1407,-1.1407,-1.1407,-1.1407,0,-1.0953,-1.0998,-1.1017,-1.1049,-1.1099,-1.1108,-1.1158,-1.1175,-1.1201,-1.1237,-1.1237,-1.1271,-1.1285,-1.1322,-1.1332,-1.1385,-1.1395,-1.1404,-1.1407,-1.1405,-1.1404,-1.142,-1.1417,-1.1409,-1.1409,-1.1408,-1.1408,0,-1.1016,-1.103,-1.1086,-1.1118,-1.1127,-1.1163,-1.119,-1.1222,-1.1235,-1.1281,-1.1292,-1.1314,-1.1357,-1.1372,-1.1425,-1.1432,-1.1494,-1.1492,-1.1483,-1.1484,-1.1518,-1.1515,-1.1625,-1.1641,-1.155,-1.1551,-1.1552,0,-1.1062,-1.1096,-1.1131,-1.1155,-1.1173,-1.1211,-1.1235,-1.1246,-1.1271,-1.131,-1.1337,-1.1379,-1.1414,-1.1483,-1.1504,-1.1545,-1.1545,-1.158,-1.1551,-1.1548,-1.1547,-1.1545,-1.1549,-1.1586,-1.1587,-1.1588,-1.1589,0,-1.1142,-1.1147,-1.1182,-1.122,-1.1249,-1.1279,-1.1308,-1.1328,-1.1343,-1.1372,-1.1415,-1.1442,-1.1495,-1.1538,-1.1579,-1.1598,-1.1597,-1.1597,-1.1608,-1.1607,-1.1601,-1.1606,-1.1499,-1.1595,-1.1595,-1.1594,-1.1594,-1.1594,-1.1199,-1.1229,-1.1259,-1.1298,-1.1321,-1.1348,-1.1379,-1.1396,-1.1432,-1.1476,-1.148,-1.1527,-1.1558,-1.1613,-1.1634,-1.1671,-1.1662,-1.1677,-1.1681,-1.1685,-1.1688,-1.1594,-1.1679,-1.1679,-1.1679,-1.1678,-1.1678,0,-1.128,-1.1299,-1.1334,-1.1375,-1.1406,-1.14,-1.1432,-1.1459,-1.15,-1.1528,-1.1562,-1.1612,-1.1653,-1.1678,-1.1719,-1.1745,-1.1745,-1.1755,-1.1754,-1.1759,-1.1693,-1.1681,-1.1755,-1.1754,-1.1754,-1.1754,-1.1754,-1.1754,-1.1326,-1.1378,-1.1386,-1.145,-1.1468,-1.1513,-1.1532,-1.1558,-1.1581,-1.1636,-1.167,-1.1685,-1.1713,-1.1756,-1.1794,-1.18,-1.1816,-1.1828,-1.1833,-1.1771,-1.1764,-1.1756,-1.1744,-1.1831,-1.1831,-1.1896,-1.1897,-1.1897]},{"header":{"parameterUnit":"m.s-1","parameterCategory":1,"la1":30.2991,"la2":30.254,"lo1":-89.0895,"lo2":-89.0444,"dy":0.0017,"dx":0.0017,"nx":28,"ny":28,"refTime":"2023-11-17T09:00:00:Z","depth":0,"parameterNumber":3,"parameterNumberName":"V-component_of_WINDS"},"data":[0,0,0,0,0,0,0,0,0,0,0,0,0,0,0,0,0,0,0,0,0,0,0,0,0,0,0,0,0,0,0,0,0,0,0,0,0,0,0,0,0,0,0,0,0,0,0,0,0,0,0,0,0,0,0,0,0,0,-2.3814,-2.3814,0,-2.3824,-2.3824,-2.3824,-2.3779,-2.3778,-2.3777,-2.3775,-2.3783,-2.3784,-2.3786,0,0,0,0,0,0,0,0,0,0,0,0,0,-2.3756,-2.3758,-2.3814,-2.3814,-2.3815,-2.3824,-2.3824,-2.3824,-2.3779,-2.3778,-2.3776,-2.3775,-2.3782,-2.3784,-2.3786,0,0,0,0,0,0,0,0,0,0,0,0,0,-2.3775,-2.3758,-2.3814,-2.3794,-2.3792,-2.3823,-2.3824,-2.3824,-2.378,-2.3778,-2.3776,-2.3774,-2.3782,-2.3784,-2.3786,-2.3837,0,0,-2.3792,-2.3793,0,0,0,0,0,0,0,0,-2.3774,-2.3777,-2.3796,-2.3795,-2.3793,-2.3798,-2.3806,-2.3828,-2.378,-2.3784,-2.3775,-2.3773,-2.3789,-2.3791,-2.3797,-2.3838,-2.3838,-2.3793,-2.3794,-2.3795,-2.3795,0,0,0,0,0,0,0,-2.3773,-2.3777,-2.3818,-2.3797,-2.3795,-2.3783,-2.3784,-2.381,-2.3797,-2.3784,-2.3781,-2.3782,-2.3788,-2.3795,-2.3797,-2.3838,-2.3793,-2.3794,-2.3796,-2.3797,-2.3922,-2.3924,0,0,0,0,0,0,-2.3775,-2.3776,-2.3818,-2.3818,-2.3779,-2.3786,-2.3786,-2.3799,-2.3797,-2.3795,-2.3784,-2.378,-2.3792,-2.3794,-2.3797,-2.3857,-2.3795,-2.3797,-2.3798,-2.392,-2.3923,-2.3925,0,0,0,0,0,0,-2.3774,-2.3779,-2.3817,-2.3796,-2.38,-2.3789,-2.3803,-2.38,-2.3806,-2.3797,-2.3795,-2.3793,-2.3791,-2.3794,-2.3828,-2.3857,-2.3798,-2.38,-2.3918,-2.3921,-2.3924,-2.3978,0,0,0,0,0,0,-2.3772,-2.3779,-2.3799,-2.3797,-2.3802,-2.3849,-2.3805,-2.3801,-2.381,-2.3806,-2.3805,-2.3803,-2.3789,-2.3825,-2.383,-2.3858,-2.3801,-2.3915,-2.3919,-2.3923,-2.3974,-2.3983,-2.399,0,0,0,0,0,-2.377,-2.3813,-2.38,-2.3805,-2.3826,-2.3851,-2.3853,-2.3837,-2.3813,-2.3832,-2.3827,-2.3803,-2.3853,-2.3829,-2.3834,-2.3864,-2.3913,-2.3918,-2.3922,-2.397,-2.3981,-2.399,0,0,0,0,0,0,-2.3817,-2.3812,-2.3798,-2.3841,-2.3847,-2.3843,-2.3867,-2.3849,-2.3861,-2.3856,-2.3834,-2.3835,-2.3873,-2.3871,-2.3845,-2.3913,-2.3879,-2.3885,-2.3913,-2.3923,-2.3931,-2.3931,-2.3803,0,0,0,0,0,-2.3833,-2.3854,-2.3848,-2.3887,-2.3891,-2.3879,-2.3889,-2.3876,-2.388,-2.3882,-2.3879,-2.3884,-2.39,-2.3912,-2.3926,-2.3973,-2.3972,-2.3996,-2.4004,-2.4011,-2.4017,-2.4041,-2.4052,-2.394,-2.394,-2.394,0,0,-2.3865,-2.3865,-2.3879,-2.3897,-2.3899,-2.3921,-2.3881,-2.3905,-2.3921,-2.3886,-2.3918,-2.3916,-2.392,-2.3961,-2.3978,-2.3961,-2.4047,-2.4017,-2.4023,-2.4024,-2.4047,-2.4058,-2.4067,-2.3943,-2.3943,-2.3942,0,0,-2.3935,-2.3937,-2.397,-2.3974,-2.3979,-2.397,-2.3978,-2.3978,-2.3975,-2.4007,-2.3981,-2.3999,-2.4028,-2.4032,-2.4038,-2.411,-2.4089,-2.4115,-2.4159,-2.4184,-2.4192,-2.42,-2.4226,-2.4235,-2.4121,-2.4121,-2.4121,0,-2.3974,-2.4006,-2.3989,-2.4015,-2.4024,-2.3994,-2.4026,-2.4031,-2.404,-2.4046,-2.4027,-2.4063,-2.4063,-2.4105,-2.4122,-2.4128,-2.4136,-2.4115,-2.4193,-2.42,-2.4207,-2.4231,-2.4241,-2.4124,-2.4124,-2.4123,-2.4123,0,-2.4054,-2.4077,-2.4103,-2.4113,-2.4125,-2.4154,-2.4141,-2.4154,-2.414,-2.4134,-2.4167,-2.4167,-2.4181,-2.419,-2.4177,-2.423,-2.4219,-2.4196,-2.4161,-2.4221,-2.4244,-2.4253,-2.4129,-2.4128,-2.4127,-2.4126,0,0,-2.4153,-2.4155,-2.4164,-2.4169,-2.4173,-2.419,-2.4218,-2.4232,-2.4244,-2.4252,-2.4275,-2.43,-2.428,-2.4286,-2.4273,-2.4294,-2.4352,-2.4269,-2.4269,-2.4284,-2.441,-2.4428,-2.4439,-2.4338,-2.4339,-2.4341,-2.441,0,-2.4221,-2.427,-2.4256,-2.4305,-2.4326,-2.4298,-2.4322,-2.4327,-2.4322,-2.4338,-2.4332,-2.4351,-2.4322,-2.4326,-2.4346,-2.434,-2.4377,-2.4335,-2.4359,-2.436,-2.4359,-2.445,-2.4468,-2.4534,-2.4419,-2.442,-2.4421,0,-2.4308,-2.432,-2.4371,-2.4372,-2.438,-2.4402,-2.4415,-2.4431,-2.4436,-2.443,-2.4439,-2.4421,-2.4448,-2.4413,-2.445,-2.4422,-2.4431,-2.443,-2.4432,-2.4433,-2.4394,-2.4454,-2.4554,-2.4564,-2.4435,-2.4434,-2.4433,0,-2.4375,-2.4404,-2.4439,-2.4443,-2.4445,-2.4461,-2.4463,-2.4465,-2.4475,-2.4486,-2.4492,-2.4506,-2.4513,-2.4524,-2.451,-2.4486,-2.4549,-2.4513,-2.4546,-2.4546,-2.456,-2.4559,-2.4663,-2.4566,-2.4566,-2.4565,-2.4565,0,-2.4453,-2.4486,-2.4469,-2.449,-2.4526,-2.4509,-2.4544,-2.4542,-2.4545,-2.4565,-2.4541,-2.456,-2.4541,-2.4558,-2.4548,-2.458,-2.4583,-2.458,-2.4577,-2.4582,-2.4583,-2.4587,-2.4583,-2.4568,-2.4567,-2.4567,-2.4567,0,-2.4534,-2.4525,-2.4561,-2.4559,-2.456,-2.4586,-2.4585,-2.4604,-2.4598,-2.4623,-2.4628,-2.4618,-2.4637,-2.4625,-2.4644,-2.4637,-2.4679,-2.4669,-2.4678,-2.4675,-2.4709,-2.4706,-2.4819,-2.4833,-2.4727,-2.4728,-2.4729,0,-2.4585,-2.4609,-2.4611,-2.4623,-2.4627,-2.4646,-2.4657,-2.464,-2.4652,-2.4659,-2.4678,-2.4695,-2.4708,-2.474,-2.4734,-2.4748,-2.4739,-2.4778,-2.4741,-2.4746,-2.474,-2.4739,-2.4741,-2.4785,-2.4786,-2.4787,-2.4788,0,-2.4676,-2.467,-2.4686,-2.4701,-2.4714,-2.4725,-2.4733,-2.4744,-2.4728,-2.4742,-2.4762,-2.4772,-2.4792,-2.481,-2.4822,-2.4822,-2.4803,-2.48,-2.4808,-2.4814,-2.4818,-2.4817,-2.4698,-2.4797,-2.4796,-2.4796,-2.4795,-2.4795,-2.4743,-2.4764,-2.4769,-2.4787,-2.4792,-2.4801,-2.4819,-2.4816,-2.4832,-2.4848,-2.4837,-2.4861,-2.4864,-2.4879,-2.4882,-2.49,-2.4884,-2.4896,-2.4899,-2.4902,-2.4907,-2.4815,-2.4902,-2.4902,-2.4901,-2.4901,-2.4901,0,-2.4833,-2.4834,-2.4852,-2.4865,-2.488,-2.4861,-2.487,-2.4883,-2.4905,-2.491,-2.4924,-2.4947,-2.4964,-2.4959,-2.4974,-2.499,-2.4981,-2.4994,-2.4993,-2.4993,-2.492,-2.4912,-2.5001,-2.5001,-2.5001,-2.5001,-2.5001,-2.5001,-2.4881,-2.4915,-2.491,-2.4946,-2.4948,-2.4971,-2.4978,-2.4986,-2.499,-2.5017,-2.5031,-2.5029,-2.503,-2.5045,-2.506,-2.5058,-2.5065,-2.5081,-2.5076,-2.5008,-2.4998,-2.4989,-2.4981,-2.5083,-2.5083,-2.5148,-2.5148,-2.5149]}]]